Погода в Семипалатинске

Хотите узнать прогноз погоды в Семипалатинске? Тогда Вам сюда: Погода в Семипалатинске

Поиск расширенной информации на нашем сайте:

Полезная информация:

Новости сайта



02.01.2020
Опубликован Долгосрочный прогноз погоды по городам России и ближнего зарубежья на январь 2020 года.
Карты: Прогноз на январь и февраль 2020 года, Сравнение прогнозируемой аномалии приземной температуры воздуха на январь 2020 года по разным моделям.




Погода в Семипалатинске - сегодня

Время (UTC), дата Ветер
(°,м/с) 
Видим.   Явления Облачность Т
(°С)
Тd
(°С)
f(%) Тe
(°С)
Pmin
(гПа)
dP
(гПа)
Po
(мм)
O2
(г/м3)
Тmin Tmax R s Состояние
почвы
12 09.08.20 тихо ()   10 км    9/4 600 м кучево-дожд., средняя, верхняя 
[Cb calv|Ac trans|Ci sp]
+29 +11.3 33 +32  1000.6  -0.2  734  265           
15 09.08.20 тихо ()   н/о    9/6 1000 м верхняя 
[Sc diur, vesp|Ci sp]
+21.7 +11.8 53 +26  1001  -0.1  734  272    +31.6       
18 09.08.20 тихо ()   н/о    8/0 верхняя 
[Sc diur, vesp|Ci fib]
+17.9 +11 64 +21  1001.3  734  276    +31.6       
21 09.08.20 тихо ()   н/о    8/0 средняя 
[Ac trans]
+15.2 +9.9 71 +17  1000.9  -0.6  734  278           
00 10.08.20 тихо ()   10 км    9/4 1000 м средняя 
[Sc|Ac trans]
+15.8 +13.3 85 +22  1001.1  0.2  734  277           
03 10.08.20 тихо ()   10 км  {ливн. осадки}  9/9 600 м кучево-дожд. 
[Cb calv]
+17.9 +15.5 86 +28  1001.5  0.6  734  274         
06 10.08.20 тихо ()   10 км  {ливн. осадки}  9/8 600 м кучево-дожд., средняя 
[Cb calv|Ac trans]
+26.5 +16 52 +38  1000.4  -0.4  734  266  +14       
09 10.08.20 340 (С) 10 км    9/8 600 м кучево-дожд., средняя, верхняя 
[Cb calv|Ac trans|Ci fib]
+29 +13.6 39 +36  999.1  -1.1  733  264           
12 10.08.20 290 (З) 10 км    8/4 600 м кучево-дожд., средняя, верхняя 
[Cb calv|Ac trans|Ci fib]
+28.5 +14.8 43 +37  999  -0.2  733  264           
15 10.08.20 270 (З) н/о    6/0 средняя, верхняя 
[Ac trans|Ci fib]
+22.4 +13.9 59 +30  999.8  0.4  733  270    +32       
18 10.08.20 тихо ()   н/о    3/0 средняя 
[Ac trans]
+16.9 +14.1 84 +25  1000.2  -0.1  733  275    +32       
21 10.08.20 тихо ()   н/о    ясно 
+14.9 +11.8 82 +19  999.8  -0.5  733  278           
00 11.08.20 тихо ()   10 км    4/3 1000 м верхняя 
[Sc|Ci sp]
+15.1 +13 87 +21  1000.3  0.5  733  277           
03 11.08.20 140 (ЮВ) 10 км  гроза без осадков  9/8 600 м кучево-дожд., верхняя 
[Cb cap|Ci sp]
+21.9 +15.3 66 +32  1000.1  0.3  733  270           
06 11.08.20 110 (В) 10 км  {гроза}  8/4 600 м кучево-дожд., средняя, верхняя 
[Cb calv|Ac trans|Ci fib]
+28.2 +15.3 45 +38  999.1  -0.5  733  265  +14.6         
09 11.08.20 160 (Ю) 10 км  {ливн. осадки}  9/6 600 м кучево-дожд., средняя, верхняя 
[Cb calv|Ac trans|Ci fib]
+30.3 +11.4 31 +34  997.2  -1.7  732  263           
12 11.08.20 110 (В) 10 км  {ливн. осадки}  6/3 600 м кучево-дожд., средняя, верхняя 
[Cb calv|Ac trans|Ci fib]
+28.2 +13.6 41 +35  996.9  -0.5  731  264           
15 11.08.20 тихо ()   н/о    8/4 600 м кучево-дожд., средняя, верхняя 
[Cb calv|Ac trans|Ci fib]
+22.2 +16.5 70 +34  998.8  1.5  733  269    +30.9  0.0     
18 11.08.20 тихо ()   н/о    6/4 600 м кучево-дожд., средняя, верхняя 
[Cb calv|Ac trans|Ci fib]
+20.6 +14.9 70 +30  999.2  0.3  733  271    +30.9  0.0     
21 11.08.20 тихо ()   н/о    9/4 1000 м средняя, верхняя 
[Sc|Ac trans|Ci fib]
+18.3 +14 76 +26  998.6  -0.8  732  274           
00 12.08.20 250 (З) 10 км    6/3 1000 м средняя, верхняя 
[Sc|Ac trans|Ci fib]
+17.8 +14 78 +27  1000  1.3  733  274           
03 12.08.20 250 (З) 10 км    8/0 верхняя 
[Ci sp]
+21.9 +11 50 +25  1001.2  1.5  734  272           
06 12.08.20 200 (Ю) 10 км    9/6 600 м кучево-дожд., верхняя 
[Cb calv|Ci sp]
+25.1 +9.6 37 +26  1001  734  269  +17.2         
09 12.08.20 200 (Ю) 10 км    8/3 600 м кучево-дожд., верхняя 
[Cb calv|Ci sp]
+26.9 +11.3 38 +30  1000.1  -0.7  734  267           
12 12.08.20 290 (З) 10 км    9/6 600 м кучево-дожд., средняя 
[Cb calv|Ac trans]
+27.3 +9.2 32 +28  998.7  -1.4  733  267           
Время (UTC), дата Ветер
(°,м/с) 
Видим.   Явления Облачность Т
(°С)
Тd
(°С)
f(%) Тe
(°С)
Pmin
(гПа)
dP
(гПа)
Po
(мм)
O2
(г/м3)
Тmin Tmax R s Состояние
почвы

Для получения пояснительной информации подведите курсор к названию столбца.

ПОГОДА в Семипалатинске - архив

Всё, что Вы хотите узнать о погоде в Семипалатинске - удобно и подробно!

Выберите нужную дату (начиная с 1 января 2019* года) и нажмите кнопку "Найти".
Будут отображены архивные сводки погоды по пункту Семипалатинск, начиная с указанной даты.


Отображать данные в формате CSV (для использования в таблицах Excel)


Внимание! Наш архив погоды предназначен исключительно для личного некоммерческого использования в познавательных целях. Если Вам необходимы официальные справки о состоянии погоды (для производственных, юридических, коммерческих и т.п. целей), обращайтесь в органы Росгидромета.

*Примечание: данная дата относится к архиву по метеостанциям СССР (Россия, СНГ, Балтия).
Архив по метеостанциям Зарубежной Европы и Азии (кроме Китая) хранится 10 дней, по другим регионам земного шара (Китай, Африка, Америка, Австралия, Океания) - 1 день.

Семипалатинск - район местоположения метеостанции


Название, широта, долгота, высота метеостанции:
Семипалатинск 50.4°ш. 80.3°д. 196 м над ур. моря [Казахстан]

Дополнительная информация

В oтличие oт бoльшинства пoгoдных сайтoв мы публикуем пoдрoбную метеoинфoрмацию в детальнoм прoфессиoнальнoм фoрмате.

Характеристики температуры и влажнoсти вoздуха измеряются на высoте 2 м в тени вдали oт зданий и деревьев.
Скoрoсть ветра измеряется на высoте 10 м (на урoвне рoста челoвека скoрoсть ветра ниже в 1.5-2 раза). Если метеoстанция нахoдится в гoрoде или в лесу, тo скoрoсть ветра занижена на 2-4 м/с пo сравнению с oткрытым местoм. Скoрoсть ветра над акватoриями крупных рек и oзёр, а также на вершинах хoлмoв на 2-5 м/с выше, чем в oбычных услoвиях.
Атмoсфернoе давление в разных тoчках местнoсти мoжет значительнo oтличаться oт давления на метеoстанции, в зависимoсти oт услoвий рельефа (при пoдъёме на 10 м давление пoнижается примернo на 1 мм рт.ст.).